Regional Weather Roundup
Issued by NWS Huntsville, AL

Home | Current Version | Previous Version | Text Only | Print | Product List | Glossary On
Versions: 1 2 3 4 5 6 7 8 9 10 11 12 13 14 15 16 17 18 19 20 21 22 23 24 25 26 27 28 29 30 31 32 33 34 35 36 37 38 39 40 41 42 43 44 45 46 47 48 49 50
000
ASUS44 KHUN 021810
RWRHUN

WEATHER ROUNDUP FOR THE TENNESSEE VALLEY
NATIONAL WEATHER SERVICE HUNTSVILLE AL
100 PM CDT WED SEP 02 2015

ALZ001>004-021900-
NORTHWEST ALABAMA

CITY           SKY/WX    TMP DP  RH WIND       PRES   REMARKS
COURTLAND HCN    N/A     82 N/A N/A CALM        N/A
BANKHEAD NF      N/A     86  73  66 CALM        N/A  HX  93
RUSSELLVILLE     N/A     82 N/A N/A MISG        N/A
SHOALS AIRPORT FAIR      86  71  60 CALM      30.09F HX  91
6HR MIN TEMP:  70; 6HR MAX TEMP:  87;

SHOALS TVA RES   N/A     86 N/A N/A MISG        N/A
$$

ALZ005>007-016-021900-
NORTH CENTRAL ALABAMA

CITY           SKY/WX    TMP DP  RH WIND       PRES   REMARKS
CULLMAN AG STN   N/A     84 N/A N/A CALM        N/A
DECATUR AP     SUNNY     85  70  60 NE6       30.09F
6HR MIN TEMP:  68; 6HR MAX TEMP:  86;

HUNTSVILLE AP  CLOUDY    89  71  55 CALM      30.09F HX  95
6HR MIN TEMP:  73; 6HR MAX TEMP:  89;

HUN NWS/UAH      N/A     88  65  47 N3          N/A
MERIDIANVILLE  CLOUDY    84  63  48 N5        30.10F
REDSTONE ARSN  CLOUDY    86  71  60 SW5       30.08F HX  91
VINEMONT AP    MOCLDY    81  72  74 N3        30.13S
$$

ALZ008>010-021900-
NORTHEAST ALABAMA

CITY           SKY/WX    TMP DP  RH WIND       PRES   REMARKS
ALBERTVILLE    CLOUDY    82  75  78 N3        30.10F
FORT PAYNE     PTSUNNY   86  61  42 CALM      30.09F
SCOTTSBORO AP  PTSUNNY   86  70  58 N3        30.09F HX  90
SCOTTSBORO HCN   N/A     86 N/A N/A MISG        N/A
VALLEY HEAD      N/A     82 N/A N/A MISG        N/A
$$

TNZ076-096-097-021900-
SOUTHEASTERN MIDDLE TENNESSEE

CITY           SKY/WX    TMP DP  RH WIND       PRES   REMARKS
TULLAHOMA      SUNNY     84  66  54 NW5       30.13F
WINCHESTER     SUNNY     86  70  58 NE6       30.11F HX  90
$$

...SURROUNDING SITES...

CITY           SKY/WX    TMP DP  RH WIND       PRES   REMARKS
ATLANTA        PTSUNNY   86  67  52 S5        30.09F
ANNISTON       PTSUNNY   88  67  49 N3        30.08F HX  91
BIRMINGHAM     PTSUNNY   88  69  53 VRB3      30.10F HX  92
CHATTANOOGA    PTSUNNY   88  68  51 N6        30.10F HX  91
DALTON         MOSUNNY   86  70  58 N6        30.10S HX  90
GADSDEN        PTSUNNY   88  70  55 W6        30.07F HX  92
GOLDEN TRNGL   MOSUNNY   91  70  49 N7        30.06F HX  97
HALEYVILLE     FAIR      85  72  65 CALM      30.13F HX  91
JACKSON TN     FAIR      88  70  55 E5        30.08F HX  93
MEMPHIS        PTSUNNY   90  67  46 VRB6      30.07F HX  93
NASHVILLE      PTSUNNY   91  66  43 N5        30.09F HX  93
OXFORD MS      FAIR      82  68  61 NE5       30.10F
ROME           MOSUNNY   89  67  47 VRB3      30.07F HX  92
SAVANNAH       MOSUNNY   88  32  13 CALM      30.08F
TUPELO         FAIR      85  71  63 NE6       30.08F HX  90
TUSCALOOSA     PTSUNNY   90  69  50 E3        30.06F HX  94
$$

...GULF COAST WEATHER...

CITY           SKY/WX    TMP DP  RH WIND       PRES   REMARKS
GULFPORT       FAIR      87  69  54 S8        30.06F HX  91
PASCAGOULA     FAIR      88  72  58 S8        30.06F HX  94
MOBILE         PTSUNNY   90  67  46 S8        30.07F HX  93
GULF SHORES    FAIR      89  71  55 SE7       30.06F HX  95
PENSACOLA      PTSUNNY   91  67  44 S9        30.05F HX  94
DESTIN         SUNNY     90  72  55 SW7       30.05F HX  97
PANAMA CITY    SUNNY     90  73  56 W13       30.04F HX  98
APPALACHICOLA  MOSUNNY   88  77  69 S13       30.04F HX 100
$$




USA.gov is the U.S. government's official web portal to all federal, state and local government web resources and services.